GFSGL_con_mucape_132.txt.gz
CAPE
1154 1413 1457 1595 1424 1551 1684 1669 1783 1819 1998 2239 2373 2442 2403 2343 2496 2242 1731 1643 1629 1692 1614 1456 1761 1705 1581 1504 1532 1379 1186 1078 877 538 395 299 166 145 455 462 468 410 339
722 870 918 1116 969 890 880 1052 1181 1328 1588 1773 1967 2175 2269 2042 2129 2025 1612 1723 1719 1767 1760 1740 1687 1862 1859 1737 1693 1575 1506 1301 977 953 873 676 394 357 368 413 403 432 486
690 961 757 605 547 646 653 644 832 952 923 1262 1579 1571 1731 1619 1562 1582 1686 1747 1446 1719 1813 1868 1921 1988 1928 1936 1818 1691 1534 1454 1159 1189 1098 593 568 462 433 371 305 404 389
1056 825 630 495 404 420 560 603 618 703 790 901 1113 1150 1228 1441 1391 1456 1663 1682 1610 1468 1580 1701 881 548 642 973 1431 1628 1411 1475 1067 1036 1226 548 776 544 352 343 440 367 323
777 655 522 431 494 566 666 651 669 633 743 923 1018 887 825 972 1203 1318 1694 1636 1382 1566 1352 1093 772 435 111 414 877 887 1096 1051 1122 1008 1005 958 949 716 458 384 435 437 435
727 611 410 428 466 559 557 576 612 632 682 837 902 816 773 877 990 1236 1468 1518 1394 1193 1347 1381 1082 678 11 38 194 451 708 970 1144 1074 909 999 955 829 562 469 403 454 320
770 622 504 427 601 469 312 341 414 462 635 794 773 754 687 725 908 1203 1443 1535 1352 1148 967 1159 919 514 434 33 50 223 290 575 1192 1167 905 985 1081 687 679 482 389 369 241
601 596 575 504 379 276 108 124 213 280 523 673 690 688 653 658 692 912 893 1005 1080 1035 912 854 827 561 55 20 53 94 259 573 1050 1397 1064 1065 1038 757 619 593 444 291 233
405 549 591 486 201 64 57 92 130 36 112 292 497 507 515 535 616 710 679 691 719 727 748 694 498 208 27 14 39 81 233 607 1059 1374 1357 1369 1072 882 763 660 466 388 320
438 496 427 282 69 6 0 13 54 18 50 171 463 546 617 625 560 615 593 509 549 635 610 513 307 176 1 0 0 42 352 651 879 1074 1416 1597 1242 883 808 601 420 315 280
442 435 324 96 7 0 0 0 25 45 113 179 340 310 503 462 460 436 466 443 641 660 467 370 304 297 127 0 19 42 122 307 858 834 981 1030 941 907 695 627 524 402 162
334 195 45 11 2 0 0 9 46 59 122 81 124 230 252 240 237 371 389 480 438 323 330 315 245 405 261 11 154 304 586 726 788 785 752 754 741 748 711 529 409 271 84
191 110 36 0 0 0 5 43 40 68 44 89 64 23 29 129 270 184 195 244 316 251 172 363 614 736 781 599 287 688 693 692 845 844 632 606 567 548 461 397 330 93 45
71 240 1 0 0 4 28 72 68 29 13 133 136 19 0 8 23 3 113 71 170 162 188 345 457 509 422 360 319 662 821 861 901 852 747 590 483 315 345 259 106 65 22
4 0 1 0 13 6 49 61 73 29 4 0 31 0 0 0 9 14 38 81 136 154 297 391 432 444 390 356 332 520 778 858 580 603 614 516 412 306 174 97 59 87 47
0 0 0 1 5 0 34 11 51 43 12 1 0 0 0 0 0 0 59 103 79 110 173 261 321 288 243 236 197 248 263 353 250 264 276 236 206 147 81 47 33 15 39
9 30 0 5 4 4 19 36 44 48 28 10 4 0 0 0 0 0 45 28 10 91 136 136 152 251 196 274 148 90 41 28 29 55 28 100 55 15 51 31 25 4 0
9 8 27 0 0 2 26 41 17 38 63 40 43 6 0 0 0 0 0 27 69 16 62 50 30 51 98 122 77 66 47 15 63 15 12 17 14 6 0 1 4 6 24
34 4 18 46 38 36 47 29 18 21 45 91 45 33 4 0 0 4 14 28 112 94 27 7 13 6 18 51 52 13 8 1 0 0 11 14 8 9 3 6 16 5 31
58 49 34 42 52 54 52 22 26 23 33 79 71 58 54 4 0 7 35 45 57 43 26 0 0 0 0 0 0 0 0 0 0 0 6 12 7 9 7 8 8 1 0
43 40 64 57 35 32 7 2 18 27 36 121 80 57 47 0 8 41 47 78 66 48 36 0 0 0 0 0 0 0 0 0 0 0 12 9 0 0 0 0 0 0 0
7 27 54 21 37 37 17 0 12 46 172 213 187 173 75 19 0 48 58 58 78 63 42 26 30 31 26 33 24 8 5 3 7 11 14 16 4 0 1 0 0 0 0
12 27 33 41 30 25 29 16 12 31 104 122 152 197 168 103 35 35 35 56 56 38 26 28 34 35 35 41 60 53 44 16 17 3 25 26 32 4 3 7 13 6 6
26 29 31 36 51 33 37 61 30 14 19 17 98 166 157 106 45 54 47 41 58 41 39 41 31 49 27 48 60 49 41 75 36 18 20 42 43 19 7 6 0 1 2
29 30 41 28 13 32 35 14 14 5 21 16 11 51 90 71 24 43 63 104 96 58 46 25 30 72 98 95 67 47 49 58 44 37 14 16 6 7 10 0 0 0 0
4 57 22 23 10 3 1 8 0 9 25 42 45 25 10 9 25 83 123 120 82 41 32 52 73 70 60 50 56 61 65 56 51 42 26 24 10 10 2 0 0 0 0

GFSGL_con_mucape_138.txt.gz
CAPE
643 572 712 760 751 743 884 881 808 744 664 699 834 1192 1478 1731 1599 1470 1498 1498 1352 1235 1138 1099 1127 1189 1249 1315 1295 1233 1155 1057 959 925 1298 1276 670 532 385 458 304 350 317
396 426 299 282 326 375 382 342 280 119 173 317 463 616 947 1397 1721 1514 1348 1680 1456 1436 1460 1420 1322 1220 1080 1257 1478 1206 1193 1189 902 1007 886 1097 530 543 655 497 560 236 193
20 12 32 114 207 247 218 241 222 48 94 211 324 421 576 753 997 1387 1421 1359 1513 1687 1564 1578 1601 1540 1191 1223 1453 1709 1315 1279 1102 953 1124 937 854 818 684 584 595 424 292
2 0 0 23 73 58 21 112 240 184 207 278 309 379 469 583 756 899 1041 1179 1220 1388 1573 1549 1641 1658 1639 1498 1301 1363 1764 1682 1324 1121 1488 961 1611 986 614 669 637 518 444
0 0 0 0 0 15 51 246 363 171 257 299 346 385 440 563 715 866 1027 1178 1150 1091 1116 1164 1249 1434 1418 1491 1441 1515 1370 1631 1535 1331 1622 1592 1341 970 520 420 600 554 392
6 0 0 0 6 62 99 343 308 259 289 142 129 175 300 482 555 669 706 949 960 1010 936 944 1034 1017 896 1045 1331 1427 1440 1661 1442 1576 1435 1033 751 856 683 482 537 602 817
14 0 0 0 4 79 133 196 366 330 219 7 0 15 59 215 278 356 393 495 698 706 695 767 865 769 854 1169 1323 1337 1346 1333 1275 1246 1109 1012 999 956 815 551 479 608 707
11 0 0 0 16 99 274 382 407 220 0 0 0 0 0 54 142 152 184 275 384 533 697 774 656 1086 808 716 928 673 618 788 1013 1258 880 850 710 835 971 863 657 522 501
86 2 10 29 82 291 484 509 276 0 0 0 0 3 61 104 176 238 236 492 442 438 544 475 666 850 796 647 625 1150 541 786 609 631 672 747 449 222 606 601 463 452 435
76 20 53 282 405 503 451 190 0 0 0 0 0 89 179 232 202 296 262 405 437 488 1032 477 622 535 627 699 583 676 705 900 838 496 492 488 340 182 168 559 517 463 265
26 115 375 473 425 295 95 4 8 5 0 0 15 168 230 62 75 136 48 197 363 422 557 645 511 533 466 414 416 777 474 548 372 247 278 117 80 66 87 151 507 583 232
137 395 504 428 246 204 19 15 11 0 0 1 0 30 82 39 47 38 28 65 48 60 136 528 389 376 344 343 319 349 468 407 416 246 181 158 180 228 237 124 239 577 483
245 346 256 162 255 76 16 9 3 0 7 3 27 25 34 85 22 0 0 0 21 45 3 58 214 342 191 200 216 280 279 252 125 116 191 74 83 50 409 231 227 378 478
155 241 189 82 0 0 0 1 0 2 18 13 12 56 28 4 0 0 0 54 6 34 120 105 176 203 162 184 277 508 403 351 214 37 2 38 6 1 133 195 140 163 259
23 87 49 15 0 0 0 0 0 1 13 5 52 83 58 0 0 0 38 27 16 9 58 110 204 199 186 279 408 385 412 89 8 5 12 6 4 0 101 212 160 94 191
14 25 34 29 15 3 1 5 15 8 43 45 55 84 58 0 0 4 36 26 38 75 3 33 79 174 117 137 238 260 318 209 225 400 176 137 50 34 72 17 65 80 67
5 27 12 5 42 0 13 1 22 8 33 34 84 83 67 4 0 0 20 26 45 68 76 21 47 21 52 119 145 167 180 224 280 269 170 73 14 13 2 18 0 0 0
23 5 13 14 0 0 53 4 8 12 5 63 44 54 69 24 0 3 13 31 53 28 62 22 6 69 89 23 26 86 144 117 145 156 181 184 116 57 3 74 70 131 87
39 10 28 32 28 30 24 24 51 30 23 20 38 45 60 33 0 3 41 46 50 8 0 1 77 45 28 52 16 54 74 99 108 151 91 68 60 121 114 131 128 128 135
11 6 6 1 0 26 28 50 37 6 7 35 31 54 36 39 2 16 84 82 46 13 0 0 0 0 0 5 0 13 13 17 20 30 83 69 28 56 62 57 58 88 53
6 10 2 2 1 29 32 40 32 0 3 26 23 42 90 60 0 49 100 88 84 22 11 20 5 0 0 0 0 0 0 0 2 0 6 7 1 29 32 20 26 32 38
10 7 10 27 26 22 42 28 20 11 16 19 27 15 58 68 78 66 107 106 85 88 39 30 53 51 35 20 29 22 17 21 18 0 0 0 4 0 0 0 0 0 0
7 9 19 32 39 33 39 49 26 18 16 12 29 34 38 68 82 58 45 30 41 65 56 51 24 64 62 72 68 54 61 51 36 23 8 0 0 0 0 0 0 0 0
10 23 0 4 34 28 47 42 64 44 45 27 21 92 83 53 46 49 72 52 60 84 77 73 70 75 54 44 59 73 78 73 59 83 89 68 44 22 22 18 15 3 0
17 5 18 1 0 17 16 24 36 44 33 20 13 12 59 48 54 54 65 91 89 86 29 79 60 27 61 79 83 72 52 27 75 24 65 94 60 28 32 27 19 15 14
12 13 6 0 9 1 0 17 22 5 11 9 0 20 31 46 39 30 47 63 64 63 59 56 68 52 71 83 97 71 59 53 71 76 15 60 70 45 2 0 0 0 0

GFSGL_con_mucape_141.txt.gz
CAPE
1965 1909 1914 1764 1616 1467 1468 1467 1504 1588 1481 1311 981 722 679 779 987 1814 1976 2266 2408 2409 2332 1858 1458 1987 1510 1839 2479 2276 2039 2148 2105 1595 1785 1970 2177 2065 1890 1618 548 1272 1263
1396 1335 875 783 766 727 796 782 996 1000 975 1011 781 716 817 836 972 1148 1287 1639 1706 1742 1919 2024 1529 1477 1455 2329 2199 2279 1908 2407 1949 1620 1582 1864 2179 2040 2035 1471 882 999 1300
260 189 336 498 518 506 433 356 372 435 415 726 765 807 792 796 822 944 1075 1254 1425 1601 1691 1874 2136 1952 2058 1707 1827 1822 2146 1949 1995 1447 1317 1637 1625 1641 1847 1512 781 636 678
135 316 441 436 350 179 155 335 380 467 504 817 798 817 903 957 912 885 939 1042 1235 1363 1716 1701 1782 2048 2142 2384 2163 1818 1883 1954 1647 1257 1399 1536 1656 1795 1617 1350 1403 995 1261
227 346 528 499 333 197 185 304 400 528 697 899 847 928 855 663 469 535 632 764 1264 1184 1545 1272 1418 1431 1129 1390 2089 2166 2276 1979 1599 1330 1274 1320 1610 1119 1108 1070 1373 1113 1766
310 496 576 400 264 239 314 471 639 683 825 1029 977 656 482 225 80 89 225 313 584 879 957 1239 1269 962 911 859 866 1037 1191 1774 1369 1329 1282 1138 1369 1051 1649 1265 1507 919 1367
508 619 509 390 290 321 351 498 712 856 1073 824 648 374 213 322 152 52 4 232 484 624 786 976 743 1103 874 1090 922 787 692 665 768 1337 1188 1414 1174 1813 1664 1548 1721 1441 1324
499 607 535 532 295 337 561 787 921 992 906 548 338 213 221 307 122 45 6 56 296 530 530 611 705 840 709 1074 1190 1253 1092 892 992 757 920 1724 1761 2450 2429 2179 2423 2251 1355
439 590 593 370 314 588 773 850 1039 776 373 181 135 186 290 500 307 278 56 462 298 362 479 446 516 642 426 476 1023 1047 1169 1164 617 781 630 775 912 1027 1077 1167 1202 1079 634
215 546 485 436 662 809 897 762 601 513 342 212 215 275 373 590 330 233 12 339 207 16 39 224 288 377 436 412 948 1149 1116 1090 1008 958 524 382 572 721 812 577 833 567 612
348 457 415 672 818 773 599 541 514 494 429 290 300 457 656 582 667 47 28 41 39 13 2 21 279 373 331 321 452 648 930 988 785 553 370 743 928 758 460 498 569 409 583
347 365 534 722 705 358 442 386 344 337 327 264 479 442 1016 683 94 84 0 0 0 15 80 89 32 18 39 361 485 434 451 459 461 376 535 241 679 451 592 623 596 983 916
167 324 525 726 635 478 308 242 224 236 379 316 274 302 159 32 91 30 9 0 52 26 1 2 13 7 21 245 344 380 329 395 434 282 259 461 512 226 549 997 681 658 1117
220 306 400 546 470 314 154 136 199 326 513 147 574 325 49 57 206 135 26 56 35 20 0 0 2 39 83 186 360 269 223 233 240 288 402 358 216 128 201 291 758 300 356
23 66 50 198 159 183 160 87 103 114 71 181 224 29 5 123 120 51 42 22 12 7 33 1 25 104 151 223 250 250 242 306 298 398 311 372 145 167 67 685 724 439 175
34 6 45 98 89 51 35 4 3 21 5 3 17 38 42 46 68 29 44 20 26 21 42 105 108 29 67 103 127 199 212 316 436 343 127 234 55 3 3 150 344 82 111
21 65 145 80 198 21 1 0 0 10 7 5 42 29 8 45 60 26 66 40 50 24 363 290 224 49 5 44 76 42 149 210 258 290 345 294 170 218 30 18 40 73 79
6 8 83 121 159 27 152 45 70 70 78 60 53 11 46 39 61 45 74 55 87 66 47 99 157 121 50 15 41 11 23 119 157 174 218 215 189 85 55 1 1 54 51
0 43 66 74 61 17 90 121 144 78 76 0 24 61 74 73 30 19 72 102 199 82 47 23 17 0 31 22 34 20 50 29 81 112 125 121 103 86 51 24 3 27 35
4 4 3 16 11 28 54 72 232 56 55 0 22 41 17 62 98 99 175 569 326 134 120 54 38 10 0 38 33 0 3 32 61 55 36 26 60 57 57 51 81 66 38
5 3 6 7 20 15 18 20 112 114 0 21 57 41 64 38 94 27 189 290 370 265 189 225 115 93 60 66 102 91 103 135 49 5 53 1 2 11 17 11 10 4 16
17 13 13 10 28 23 6 26 35 33 12 0 30 16 28 77 72 78 126 134 177 78 165 134 215 224 181 153 139 75 54 45 37 58 51 23 21 0 0 0 2 20 15
15 17 1 6 11 9 19 21 19 20 20 14 57 55 30 75 62 53 50 37 74 47 24 41 46 53 142 198 380 370 184 148 147 105 60 43 35 31 25 10 0 0 0
2 1 16 7 2 0 7 15 9 26 31 34 34 21 44 49 57 69 58 57 65 65 64 52 13 0 29 47 50 37 51 62 69 124 193 86 60 48 49 53 49 44 17
0 4 3 0 0 0 0 0 4 16 25 14 5 4 1 15 34 56 71 64 65 65 39 27 40 32 45 48 45 29 23 16 41 1 177 154 147 101 78 58 59 59 60
0 0 6 7 4 5 1 3 0 6 4 5 3 5 9 6 20 11 19 25 40 53 58 48 50 57 47 53 49 45 38 35 35 47 28 166 127 66 26 11 15 6 17

GFSGL_con_mucape_147.txt.gz
CAPE
3473 3804 4377 3785 3388 3109 1873 893 707 663 675 735 1136 1247 1151 1195 1396 1818 2071 2087 1589 1784 1690 1619 1458 1565 1251 1372 1284 1085 1384 1461 1054 1371 1046 1492 3038 2993 3273 2962 1861 2728 1769
4237 3646 3279 3000 2399 1167 805 665 534 621 566 711 1029 1129 1225 1218 1485 1740 1867 1472 1608 1516 1519 1440 1518 1258 1769 1823 1405 1707 1472 1827 1875 2151 2011 1838 2158 2567 3227 3112 2346 2026 2524
3113 2885 2367 1614 993 766 577 673 847 847 744 530 1060 1341 1324 1344 1497 1638 1352 1634 1566 1484 1341 897 951 1338 1469 1513 1537 1542 1580 1657 1764 1965 1562 1629 1922 2526 2876 3207 3115 3014 2760
2113 1319 1098 926 716 642 1058 1259 1309 1498 1290 1343 1308 1437 1452 1469 1362 1526 1651 1563 1530 968 1114 1194 996 1138 1357 1585 1613 1789 1861 1796 1689 1548 1494 1266 1310 1902 2881 2627 1799 2188 2207
1068 971 996 1129 1331 1389 1714 1977 2069 2069 1474 1485 1519 1405 1364 1125 586 1127 899 1005 1219 960 894 801 895 925 695 732 1175 1349 1486 1510 1613 1216 1111 1022 1096 1549 1786 1995 2104 1864 2263
1089 1086 1197 1372 1802 2247 2495 2526 2667 2240 1859 1804 1594 1387 1287 630 463 556 492 909 889 835 908 997 1066 854 796 582 433 444 692 1155 1276 1378 1169 1097 1412 1202 1554 1771 2236 2160 2074
811 871 910 1449 1518 2112 2366 2306 2019 1813 1709 1617 1414 1345 1264 1204 726 581 566 725 767 792 1092 1214 910 673 701 816 835 570 560 553 610 1232 1255 1365 1409 1619 1779 2196 2165 2207 2027
220 161 289 748 859 1387 1775 1850 1787 1343 1494 1387 1270 1268 1301 1116 571 463 396 702 1098 1206 1309 1270 1108 1179 1142 651 632 851 1055 1129 1157 874 1159 1363 1546 1675 1666 2139 2610 2654 2727
48 256 406 489 540 632 1237 1459 930 1195 1291 1211 1038 1223 1248 1289 724 560 368 1284 1159 1208 1389 1372 1208 1191 505 91 82 311 396 726 462 431 581 745 795 805 881 1759 1939 2008 1813
207 261 311 337 494 664 1199 1102 1033 1009 847 919 963 1058 840 1190 764 436 293 1307 1241 1338 801 1090 231 25 8 1 0 38 73 6 323 696 985 565 417 467 622 998 1288 1202 1568
76 101 176 314 639 1101 1340 1140 817 900 1029 1036 873 1224 1174 1133 1231 479 214 481 519 452 213 35 4 42 45 73 52 39 23 34 1 248 744 1013 1235 1617 1565 1132 1589 1427 1502
59 88 217 561 356 391 1165 958 708 1092 949 959 537 466 294 1146 692 516 192 12 21 97 47 50 73 86 79 49 54 25 34 52 10 3 106 628 1031 1427 1421 1732 1696 1648 1661
21 43 80 160 265 650 870 680 975 883 774 200 66 190 420 426 1216 421 47 16 16 37 108 58 48 58 16 19 41 76 48 20 32 0 45 232 778 918 1523 1580 1568 1751 1858
16 16 22 255 196 473 419 669 865 313 333 52 59 62 0 100 179 529 154 11 46 48 104 109 13 9 60 72 97 38 4 22 11 8 0 188 573 1060 1199 1541 1577 1521 1379
15 19 25 32 101 386 692 521 346 682 507 183 63 0 0 0 2 5 0 3 52 57 30 16 34 304 215 203 49 2 4 25 71 33 10 199 701 1000 1117 1372 1362 1284 949
17 20 13 9 65 230 342 385 259 41 32 0 0 4 2 18 26 38 19 27 42 26 35 39 244 354 240 220 12 0 5 24 135 270 337 411 655 620 915 961 844 663 571
28 4 13 29 182 187 504 297 917 761 40 3 7 32 38 24 35 41 35 52 17 42 40 56 355 522 422 291 49 1 5 8 75 166 207 487 386 388 365 479 526 357 675
14 5 108 44 87 58 81 513 732 763 123 31 2 0 3 25 43 51 50 48 75 43 84 324 254 467 476 304 147 15 52 36 47 80 115 136 269 267 314 390 598 709 843
5 73 21 33 47 21 20 63 26 84 13 47 0 0 1 11 25 37 62 207 199 52 303 88 171 546 461 294 235 182 65 38 0 9 2 34 147 355 237 330 255 296 312
0 0 0 1 4 1 4 1 0 12 25 6 0 0 1 1 0 3 35 67 41 16 84 448 357 680 592 292 56 171 153 108 55 9 0 4 40 73 100 162 127 233 214
0 0 0 0 0 0 0 6 0 2 12 12 0 15 32 17 12 38 46 32 60 25 77 64 82 16 22 21 0 7 29 35 64 91 64 28 1 4 0 2 26 25 19
0 2 3 0 0 1 0 0 0 2 4 0 6 25 43 34 58 58 59 60 63 56 37 13 15 2 15 21 8 13 12 30 24 39 57 70 70 32 26 0 2 10 6
0 0 0 0 0 0 0 0 2 5 1 0 0 15 28 36 48 70 74 53 49 55 49 42 5 13 14 10 7 12 10 11 15 14 40 20 90 72 54 30 4 0 0
0 0 0 0 0 0 0 7 7 9 2 0 1 25 22 27 31 34 57 63 32 29 30 24 15 10 17 13 8 9 23 13 7 5 40 44 72 24 21 12 63 7 7
0 0 0 0 0 0 0 2 2 0 0 0 0 0 0 0 4 2 16 23 26 15 17 22 18 18 7 6 0 2 0 11 18 10 27 52 46 49 62 66 112 64 77
0 0 0 0 0 0 0 0 0 0 0 0 0 0 5 3 2 3 4 1 5 12 6 2 3 0 1 4 2 4 2 0 3 9 27 200 182 39 37 23 99 46 67